Location: Unspecified
(51.5147°N, 7.4673°E)
Time: 13:39:35
(UTC+01:00)

Explorer 7 - Pass Details

Date: 17 February 2026
Orbit: 430 x 541 km, 50.2° (Epoch: 8 March)

Event Time Altitude Azimuth Distance (km) Brightness Sun altitude
Rises 21:09:56 0° 281° (W) 2,554 11.3 -31.4°
Reaches altitude 10° 21:12:18 10° 268° (W) 1,693 10.0 -31.8°
Enters shadow 21:13:04 14° 261° (W) 1,449 9.5 -31.9°
